Lid_Strength_Index
10 12 14 12 11 11 12 13 13 12 10 11 12 11 11 9 9 9 9 7 7 6 5 4 4 4 6 6 6 6 4 3 2 2 2 2 2 2 2 2 1 1 0 0
11 13 10 9 9 10 11 13 13 11 9 11 11 11 10 9 9 9 8 7 7 6 6 5 4 5 6 6 6 5 4 3 1 1 1 2 1 1 1 1 1 1 0 0
12 10 8 9 10 11 12 13 13 12 11 11 12 12 11 9 8 7 7 7 7 6 6 5 4 5 4 3 4 5 5 3 1 1 2 3 3 3 3 3 2 1 1 1
11 9 9 11 11 11 13 10 10 11 13 16 11 16 13 11 10 8 8 7 7 7 6 5 4 5 5 4 3 5 5 2 2 1 2 2 3 3 3 2 1 1 0 1
10 10 11 12 11 9 11 9 11 11 13 15 14 17 14 11 12 10 8 6 6 6 6 5 5 4 4 3 3 3 3 3 2 2 2 2 3 2 2 3 2 2 1 1
10 8 9 10 8 9 8 11 12 13 15 19 15 16 16 13 12 10 8 7 6 5 5 5 5 5 5 4 4 4 3 2 2 2 2 2 3 3 3 3 3 2 2 1
10 10 9 8 10 10 11 14 19 20 20 19 14 15 14 11 9 8 8 7 6 5 6 6 6 6 5 5 5 4 4 4 3 2 2 2 2 2 3 2 2 3 2 2
15 15 10 8 10 12 13 14 19 23 22 19 13 18 14 9 8 7 7 6 7 7 7 7 7 6 6 5 5 5 4 4 2 3 2 2 2 2 2 2 2 2 2 2
15 14 8 8 8 9 12 16 12 18 17 19 17 13 10 9 9 8 7 7 8 8 7 8 7 7 6 6 5 5 5 4 2 2 3 2 2 3 2 3 3 3 3 2
11 16 10 9 8 9 11 10 17 17 22 22 18 16 15 11 10 9 8 9 9 8 8 8 7 7 7 6 6 5 5 4 3 2 2 3 2 1 1 2 3 3 3 3
11 14 13 10 12 12 12 14 14 14 16 21 21 18 12 10 9 10 9 9 9 9 9 8 7 6 6 6 6 6 5 4 3 2 2 2 3 3 2 3 3 2 3 2
10 13 16 13 9 8 10 12 13 18 18 16 17 17 8 9 9 8 8 8 9 8 9 8 7 7 7 7 6 6 4 4 4 2 2 2 3 3 4 3 3 2 3 2
11 16 19 15 13 11 12 11 11 12 13 17 19 17 8 8 8 8 9 9 8 9 8 7 7 8 8 7 7 6 6 5 5 3 2 3 2 3 4 4 2 3 3 2
8 13 14 17 14 13 13 12 11 12 17 16 16 14 11 9 9 9 9 9 8 8 8 8 9 9 9 8 8 7 6 6 5 4 3 2 3 2 3 2 2 2 1 2
10 14 13 12 11 11 12 12 12 14 13 16 14 14 11 10 10 10 9 9 9 9 9 9 10 9 8 8 8 7 7 6 5 6 4 3 2 2 2 2 2 2 1 2
11 14 13 14 11 12 13 12 11 12 12 13 13 14 9 10 9 9 9 8 10 10 10 10 10 9 8 7 7 7 7 7 6 6 5 4 2 2 2 2 2 3 3 3
13 14 15 17 13 13 16 13 12 12 12 13 15 11 11 10 10 9 9 9 11 11 10 10 9 9 8 8 7 8 7 7 7 7 5 4 2 2 2 2 3 3 4 4
13 13 13 16 15 20 13 10 10 12 11 10 10 10 9 9 9 9 8 10 11 10 10 10 9 9 8 7 7 7 7 7 7 7 5 4 2 2 2 2 3 3 3 4
10 12 15 17 18 14 12 11 12 13 13 10 10 9 9 9 9 9 9 9 10 10 10 10 9 9 8 8 7 8 8 7 7 7 6 4 3 2 2 3 4 5 5 6
10 10 13 16 18 20 13 10 7 9 15 9 9 10 9 9 13 12 10 10 10 10 10 10 9 9 8 8 8 8 8 8 8 7 6 4 2 2 3 3 4 4 5 6
13 14 16 16 17 14 11 8 8 16 15 8 8 8 10 11 10 11 11 11 10 11 11 10 9 8 8 7 6 6 8 8 7 6 5 4 2 2 3 4 5 5 7 8
14 19 16 16 17 18 8 8 13 10 8 8 9 9 9 9 11 11 11 11 11 11 11 9 9 8 7 5 5 7 8 7 7 6 4 2 2 2 4 5 6 7 8 10
16 12 13 13 14 9 7 8 6 6 10 9 11 9 9 12 12 12 12 12 12 11 10 9 8 8 6 6 7 8 7 7 6 6 3 2 3 3 5 5 6 7 8 9
12 10 12 11 10 9 7 6 6 7 10 9 8 8 11 12 12 12 12 12 12 11 11 9 9 7 6 7 6 6 7 7 5 4 3 4 4 4 6 6 6 7 8 8
11 10 11 12 10 8 7 6 7 8 9 9 9 10 11 12 13 13 13 12 12 11 10 9 8 8 6 7 6 7 6 6 5 3 3 5 5 5 7 8 7 7 6 7
10 10 11 12 8 9 8 6 8 10 9 9 11 11 12 12 13 13 13 13 12 11 10 9 8 7 7 7 6 7 6 6 3 3 5 5 6 7 8 9 11 12 10 11